This is the latest recevied weather packets stored in our database for station/object N0OQA. If no packets are shown the sender has not sent any weather packets the latest 10 day(s).
| Time | Temp. | Humidity | Pressure | Rain* | Wind** | Luminosity | Snow |
|---|---|---|---|---|---|---|---|
| 1788553064 | 28.33° C | 61% | 1015.4 hPa | 0 mm | - | - | - |
| 1788552763 | 28.33° C | 61% | 1015.4 hPa | 0 mm | - | - | - |
| 1788552163 | 28.33° C | 62% | 1015.4 hPa | 0 mm | - | - | - |
| 1788550660 | 26.67° C | 65% | 1015.5 hPa | 0 mm | - | - | - |
| 1788550359 | 26.67° C | 66% | 1015.6 hPa | 0 mm | - | - | - |
| 1788549458 | 26.11° C | 70% | 1015.6 hPa | 0 mm | - | - | - |
| 1788549158 | 26.11° C | 70% | 1015.7 hPa | 0 mm | - | - | - |
| 1788548858 | 26.11° C | 71% | 1015.7 hPa | 0 mm | - | - | - |
| 1788548255 | 25.56° C | 72% | 1015.8 hPa | 0 mm | - | - | - |
| 1788547054 | 24.44° C | 77% | 1015.9 hPa | 0 mm | - | - | - |
| 1788546453 | 24.44° C | 78% | 1016 hPa | 0 mm | - | - | - |
| 1788543749 | 23.89° C | 82% | 1015.8 hPa | 0 mm | - | - | - |
| 1788543449 | 23.33° C | 83% | 1015.7 hPa | 0 mm | - | - | - |
| 1788541647 | 22.78° C | 91% | 1015.7 hPa | 0 mm | - | - | - |
| 1788539543 | 23.33° C | 95% | 1015.3 hPa | 0 mm | - | - | - |
| 1788538342 | 22.78° C | 99% | 1014.9 hPa | 0 mm | - | - | - |
| 1788538042 | 22.78° C | 100% | 1014.9 hPa | 0 mm | - | - | - |
| 1788537742 | 22.22° C | 100% | 1014.9 hPa | 0 mm | - | - | - |
| 1788537141 | 21.67° C | 100% | 1014.8 hPa | 0 mm | - | - | - |
| 1788535940 | 21.67° C | 100% | 1014.7 hPa | 0 mm | - | - | - |
| 1788535039 | 21.11° C | 100% | 1014.7 hPa | 0 mm | - | - | - |
| 1788532336 | 21.11° C | 99% | 1014.2 hPa | 0 mm | - | - | - |
| 1788531736 | 21.11° C | 98% | 1014.1 hPa | 0 mm | - | - | - |
| 1788531436 | 21.11° C | 98% | 1014.1 hPa | 0 mm | - | - | - |
| 1788531135 | 21.11° C | 98% | 1014 hPa | 0 mm | - | - | - |
* Rain since midnight (hover to see other rain measurements)
** Current wind speed in m/s (hover to see current wind gust speed)